EN

Hourly Weather Paradise

Today, 1 March, Monday

Time Temperature Precipitation Wind Pressure Humidity
00:00 +7°C° 0 mm 1 mps 712 mmHg 22%
01:00 +7°C° 0 mm 1 mps 712 mmHg 23%
02:00 +6°C° 0 mm 1 mps 712 mmHg 24%
03:00 +6°C° 0 mm 1 mps 712 mmHg 24%
04:00 +5°C° 0 mm 1 mps 712 mmHg 25%
05:00 +6°C° 0 mm 1 mps 713 mmHg 25%
06:00 +6°C° 0 mm 1 mps 713 mmHg 25%
07:00 +6°C° 0 mm 1 mps 713 mmHg 24%
08:00 +8°C° 0 mm 1 mps 714 mmHg 22%
09:00 +9°C° 0 mm 2 mps 714 mmHg 19%
10:00 +12°C° 0 mm 2 mps 714 mmHg 16%
11:00 +13°C° 0 mm 2 mps 714 mmHg 15%
12:00 +14°C° 0 mm 2 mps 713 mmHg 14%
13:00 +15°C° 0 mm 2 mps 712 mmHg 13%
14:00 +15°C° 0 mm 2 mps 712 mmHg 12%
15:00 +15°C° 0 mm 2 mps 711 mmHg 12%
16:00 +16°C° 0 mm 1 mps 711 mmHg 12%
17:00 +14°C° 0 mm 1 mps 711 mmHg 14%
18:00 +13°C° 0 mm 1 mps 711 mmHg 16%
19:00 +12°C° 0 mm 1 mps 711 mmHg 18%
20:00 +11°C° 0 mm 1 mps 711 mmHg 18%
21:00 +11°C° 0 mm 1 mps 711 mmHg 19%
22:00 +10°C° 0 mm 1 mps 711 mmHg 20%
23:00 +9°C° 0 mm 1 mps 711 mmHg 21%

Tomorrow, 2 March, Tuesday

Time Temperature Precipitation Wind Pressure Humidity
00:00 +9°C° 0 mm 1 mps 710 mmHg 21%
01:00 +9°C° 0 mm 1 mps 710 mmHg 21%
02:00 +8°C° 0 mm 1 mps 709 mmHg 22%
03:00 +8°C° 0 mm 1 mps 709 mmHg 22%
04:00 +8°C° 0 mm 1 mps 709 mmHg 22%
05:00 +8°C° 0 mm 1 mps 709 mmHg 22%
06:00 +9°C° 0 mm 1 mps 709 mmHg 22%
07:00 +9°C° 0 mm 1 mps 709 mmHg 22%
08:00 +11°C° 0 mm 1 mps 709 mmHg 20%
09:00 +14°C° 0 mm 1 mps 709 mmHg 17%
10:00 +16°C° 0 mm 2 mps 709 mmHg 15%
11:00 +17°C° 0 mm 2 mps 709 mmHg 14%
12:00 +18°C° 0 mm 2 mps 708 mmHg 13%
13:00 +19°C° 0 mm 2 mps 708 mmHg 12%
14:00 +19°C° 0 mm 2 mps 707 mmHg 12%
15:00 +20°C° 0 mm 1 mps 707 mmHg 11%
16:00 +21°C° 0 mm 1 mps 706 mmHg 11%
17:00 +19°C° 0 mm 1 mps 706 mmHg 13%
18:00 +16°C° 0 mm 1 mps 706 mmHg 16%
19:00 +13°C° 0 mm 0 mps 705 mmHg 18%
20:00 +12°C° 0 mm 0 mps 706 mmHg 19%
21:00 +12°C° 0 mm 0 mps 706 mmHg 19%
22:00 +11°C° 0 mm 0 mps 706 mmHg 20%
23:00 +11°C° 0 mm 0 mps 706 mmHg 20%

Day after tomorrow, 3 March, Wednesday

Time Temperature Precipitation Wind Pressure Humidity
00:00 +10°C° 0 mm 0 mps 705 mmHg 21%
01:00 +9°C° 0 mm 0 mps 705 mmHg 21%
02:00 +9°C° 0 mm 0 mps 705 mmHg 22%
03:00 +9°C° 0 mm 0 mps 705 mmHg 22%
04:00 +8°C° 0 mm 0 mps 704 mmHg 22%
05:00 +9°C° 0 mm 0 mps 705 mmHg 22%
06:00 +9°C° 0 mm 0 mps 705 mmHg 22%
07:00 +10°C° 0 mm 0 mps 705 mmHg 22%
08:00 +13°C° 0 mm 1 mps 706 mmHg 18%
09:00 +16°C° 0 mm 1 mps 707 mmHg 15%
10:00 +19°C° 0 mm 1 mps 708 mmHg 12%
11:00 +20°C° 0 mm 1 mps 707 mmHg 11%
12:00 +20°C° 0 mm 2 mps 707 mmHg 10%
13:00 +21°C° 0 mm 2 mps 707 mmHg 9%
14:00 +22°C° 0 mm 3 mps 706 mmHg 9%
15:00 +22°C° 0 mm 3 mps 706 mmHg 9%
16:00 +22°C° 0 mm 4 mps 705 mmHg 9%
17:00 +21°C° 0 mm 3 mps 705 mmHg 10%
18:00 +20°C° 0 mm 3 mps 705 mmHg 12%
19:00 +18°C° 0 mm 3 mps 705 mmHg 14%
20:00 +17°C° 0.3 mm 4 mps 705 mmHg 28%
21:00 +14°C° 0.3 mm 5 mps 706 mmHg 43%
22:00 +11°C° 0.3 mm 6 mps 706 mmHg 58%
23:00 +10°C° 1.4 mm 5 mps 706 mmHg 65%

4 March, Thursday

Time Temperature Precipitation Wind Pressure Humidity
00:00 +11°C° 1.4 mm 4 mps 706 mmHg 73%
01:00 +10°C° 1.4 mm 3 mps 706 mmHg 80%
02:00 +10°C° 0.7 mm 3 mps 706 mmHg 81%
03:00 +10°C° 0.7 mm 2 mps 706 mmHg 83%
04:00 +10°C° 0.7 mm 2 mps 706 mmHg 84%
05:00 +10°C° 0.3 mm 2 mps 706 mmHg 82%
06:00 +10°C° 0.3 mm 2 mps 707 mmHg 79%
07:00 +10°C° 0.3 mm 2 mps 707 mmHg 76%
08:00 +12°C° 0 mm 2 mps 708 mmHg 69%
09:00 +13°C° 0 mm 2 mps 708 mmHg 62%
10:00 +13°C° 0 mm 3 mps 709 mmHg 54%
11:00 +14°C° 0 mm 3 mps 709 mmHg 50%
12:00 +16°C° 0 mm 3 mps 709 mmHg 45%
13:00 +17°C° 0 mm 3 mps 709 mmHg 41%
14:00 +17°C° 0 mm 3 mps 709 mmHg 40%
15:00 +17°C° 0 mm 4 mps 709 mmHg 38%
16:00 +17°C° 0 mm 4 mps 709 mmHg 37%
17:00 +17°C° 0 mm 3 mps 709 mmHg 40%
18:00 +16°C° 0 mm 3 mps 709 mmHg 43%
19:00 +15°C° 0 mm 2 mps 710 mmHg 46%
20:00 +15°C° 0 mm 1 mps 710 mmHg 48%
21:00 +14°C° 0 mm 1 mps 710 mmHg 49%
22:00 +13°C° 0 mm 0 mps 710 mmHg 51%
23:00 +12°C° 0 mm 0 mps 710 mmHg 52%

5 March, Friday

Time Temperature Precipitation Wind Pressure Humidity
00:00 +12°C° 0 mm 0 mps 710 mmHg 53%
01:00 +11°C° 0 mm 0 mps 710 mmHg 54%
02:00 +11°C° 0 mm 0 mps 710 mmHg 55%
03:00 +11°C° 0 mm 0 mps 710 mmHg 55%
04:00 +11°C° 0 mm 1 mps 710 mmHg 56%
05:00 +11°C° 0 mm 1 mps 710 mmHg 56%
06:00 +12°C° 0 mm 1 mps 710 mmHg 55%
07:00 +12°C° 0 mm 1 mps 711 mmHg 55%
08:00 +14°C° 0 mm 1 mps 711 mmHg 49%
09:00 +15°C° 0 mm 2 mps 711 mmHg 43%
10:00 +17°C° 0 mm 2 mps 711 mmHg 37%
11:00 +18°C° 0 mm 2 mps 711 mmHg 34%
12:00 +18°C° 0 mm 2 mps 710 mmHg 32%
13:00 +19°C° 0 mm 3 mps 710 mmHg 29%
14:00 +19°C° 0 mm 2 mps 709 mmHg 29%
15:00 +20°C° 0 mm 2 mps 709 mmHg 29%
16:00 +21°C° 0 mm 1 mps 708 mmHg 28%
17:00 +20°C° 0 mm 1 mps 708 mmHg 32%
18:00 +19°C° 0 mm 1 mps 708 mmHg 35%
19:00 +16°C° 0 mm 0 mps 707 mmHg 39%
20:00 +15°C° 0 mm 0 mps 707 mmHg 40%
21:00 +15°C° 0 mm 0 mps 707 mmHg 41%
22:00 +14°C° 0 mm 0 mps 707 mmHg 41%
23:00 +14°C° 0 mm 0 mps 706 mmHg 42%

6 March, Saturday

Time Temperature Precipitation Wind Pressure Humidity
00:00 +14°C° 0 mm 0 mps 706 mmHg 42%
01:00 +14°C° 0 mm 1 mps 706 mmHg 42%
02:00 +14°C° 0 mm 1 mps 706 mmHg 43%
03:00 +13°C° 0 mm 1 mps 705 mmHg 43%
04:00 +12°C° 0 mm 1 mps 705 mmHg 44%
05:00 +12°C° 0 mm 0 mps 705 mmHg 44%
06:00 +12°C° 0 mm 0 mps 706 mmHg 43%
07:00 +12°C° 0 mm 0 mps 706 mmHg 43%
08:00 +14°C° 0 mm 0 mps 706 mmHg 38%
09:00 +18°C° 0 mm 1 mps 707 mmHg 32%
10:00 +20°C° 0 mm 1 mps 707 mmHg 27%
11:00 +21°C° 0 mm 1 mps 707 mmHg 24%
12:00 +22°C° 0 mm 1 mps 707 mmHg 21%
13:00 +23°C° 0 mm 1 mps 707 mmHg 19%
14:00 +24°C° 0 mm 1 mps 706 mmHg 17%
15:00 +24°C° 0 mm 1 mps 706 mmHg 16%
16:00 +24°C° 0 mm 1 mps 706 mmHg 15%
17:00 +23°C° 0 mm 1 mps 706 mmHg 19%
18:00 +22°C° 0 mm 1 mps 706 mmHg 22%
19:00 +20°C° 0 mm 1 mps 706 mmHg 25%
20:00 +20°C° 0 mm 1 mps 706 mmHg 27%
21:00 +19°C° 0 mm 1 mps 706 mmHg 28%
22:00 +18°C° 0 mm 1 mps 706 mmHg 30%
23:00 +16°C° 0 mm 1 mps 706 mmHg 31%
Show more

We Need Your Consent

Meteoprog and our Service Providers may store and access personal data such as cookies, device identifiers or other similar technologies on your device and process such data to personalise content and ads, as well as provide social media features and to analyse the traffic.

  • Store and/or access information on your device

    Cookies, device identifiers or other information can be stored or accessed on your device for the purposes indicated above.

  • Personalised ads and content, ad and content measurement, audience insights, and products development

    Ads and content can be personalised based on a profile. More data can be added to better personalise ads and content. Ad and content performance can be measured. Insights about the audience who saw the ads and content can be derived. Such data can be used to develop or improve user’s experience, systems and software.

By clicking ‘I Agree’ you will allow the use of indicated cookies, device identifiers, web beacons or other similar technologies. Your settings can be changed in the browser on your device.

For certain purposes, legitimate interests may be relied on, rather than consent. You can read more about this in our Privacy and Cookie Policy.